Regional Weather Roundup
Issued by NWS

Home | Current Version | Previous Version | Graphics & Text | Print | Product List | Glossary On
Versions: 1 2 3 4 5 6 7 8 9 10 11 12 13 14 15 16 17 18 19 20 21 22 23 24 25 26 27 28 29 30 31 32 33 34 35 36 37 38 39 40 41 42 43 44 45 46 47 48 49 50
000
ASUS45 KBOU 311107
RWRCO

WEATHER ROUNDUP FOR COLORADO
NATIONAL WEATHER SERVICE DENVER/BOULDER CO
400 AM MST SAT JAN 31 2015

NOTE: "FAIR" INDICATES FEW OR NO CLOUDS BELOW 12000 FEET WITH NO
SIGNIFICANT WEATHER AND/OR OBSTRUCTIONS TO VISIBILITY.

COZ001>005-013-030-031-311200-
...NORTHWEST COLORADO...

CITY           SKY/WX    TMP DP  RH WIND       PRES   REMARKS
CRAIG          MIX PCPN  33  32  96 CALM      29.90F FOG
HAYDEN         CLOUDY    30  28  93 CALM      29.89S VSB 1/2
MEEKER         LGT SNOW  33  32  96 CALM      29.90F FOG
MOUNT WERNER   NOT AVBL
STEAMBOAT SPGS CLOUDY    32  31  96 CALM      29.89S
WALDEN         CLOUDY    30  28  93 CALM      29.90S
$$

COZ006>008-011-311200-
...WEST CENTRAL VALLEYS...

CITY           SKY/WX    TMP DP  RH WIND       PRES   REMARKS
GRAND JUNCTION LGT RAIN  38  38 100 CALM      29.89F VSB 3/4
MONTROSE       CLOUDY    37  36  96 NW5       29.90F FOG
EAGLE          CLOUDY    32  32 100 CALM      29.91F
RIFLE          CLOUDY    36  35  96 CALM      29.89F FOG
DELTA          LGT RAIN  40  39  99 CALM      29.89F VSB 1/4
NUCLA          LGT SNOW  34  32  93 CALM      29.94S
$$

COZ017>023-064>068-311200-
...SOUTHWEST COLORADO...

CITY           SKY/WX    TMP DP  RH WIND       PRES   REMARKS
DURANGO        LGT SNOW  32  31  96 N3        29.90F FOG
CORTEZ         LGT RAIN  35  33  92 CALM      29.90F
PAGOSA SPRINGS LGT SNOW  34  34 100 CALM      29.91F
TELLURIDE      SNOW      30  30 100 W6        29.90F VSB 1/4 WCI  24
WOLF CREEK PAS SNOW      21  21 100 SW10      29.97F VSB 1/2 WCI  10
$$

COZ009-010-012-014-032>034-037-058>063-311200-
...CENTRAL COLORADO...

CITY           SKY/WX    TMP DP  RH WIND       PRES   REMARKS
ASPEN          CLOUDY    31  30  96 SW5       29.87F WCI  26
BUENA VISTA    LGT SNOW  30  29  96 CALM      29.93S
COPPER MTN     CLOUDY    28  21  74 S8        29.93F WCI  20
BERTHOUD PASS  CLOUDY    19  14  79 W8        29.95F WCI   9
COTTONWOOD PAS FOG       30  27  86 CALM      29.93S VSB 1/4
GUNNISON       CLOUDY    30  27  86 NE7       29.91F WCI  23
KREMMLING      MIX PCPN  30  28  93 CALM      29.91F
LEADVILLE      CLOUDY    23  22  96 N6        29.89F WCI  16
MONARCH PASS   FOG       25  23  93 MISG      30.04F VSB<1/4
SALIDA         CLOUDY    32  32  99 CALM      30.00F
SUNLIGHT       LGT SNOW  30  28  93 CALM        N/A
WILKERSON PASS CLOUDY   N/A N/A N/A SW5       29.96F
$$

COZ069>075-311200-
...SAN LUIS VALLEY/SANGRE DE CRISTO MOUNTAINS...

CITY           SKY/WX    TMP DP  RH WIND       PRES   REMARKS
ALAMOSA        CLOUDY    29  27  92 CALM      29.92F
LA VETA PASS   LGT SNOW  27  25  93 MISG      29.92F
SAGUACHE       CLOUDY    30  28  93 N3        29.93F
$$

COZ035-036-038>040-311200-
...NORTHERN COLORADO FRONT RANGE...

CITY           SKY/WX    TMP DP  RH WIND       PRES   REMARKS
DENVER INTL AP CLOUDY    32  25  75 CALM      29.93F
DMNS CITY PARK   N/A     35  24  63 NE3       29.93F
AURORA         CLOUDY    33  24  70 CALM      29.93F
FRONT RANGE AP NOT AVBL
ERIE MUNI ARPT CLOUDY    32  29  86 CALM      29.94F
BOULDER MUN AP CLOUDY    36  28  75 CALM      29.94F
CENTENNIAL     CLOUDY    33  24  69 N6        29.93F WCI  28
BROOMFIELD     CLOUDY    34  28  80 N3        29.94F
FORT COLLINS   CLOUDY    34  25  69 CALM      29.96F
LONGMONT       CLOUDY    37  28  68 CALM      29.96F
$$

COZ041-046-047-076>085-087-088-311200-
...PIKES PEAK/PALMER DIVIDE AND SOUTHERN FOOTHILLS...

CITY           SKY/WX    TMP DP  RH WIND       PRES   REMARKS
COLO. SPRINGS  CLOUDY    37  25  61 CALM      29.93F
A. F. ACADEMY  CLOUDY    34  26  74 N8        29.92F WCI  27
ELLICOTT       CLOUDY   N/A N/A N/A N3        29.92S
FALCON         CLOUDY    33  26  74 NW7       29.92S WCI  27
FORT CARSON    CLOUDY    37  30  75 SW2       29.91F
LIMON          CLOUDY    29  26  89 NW8       29.91F WCI  21
MONUMENT HILL  CLOUDY    30  27  86 NW3       29.92F
TRINIDAD       CLOUDY    34  29  82 W12       29.91F WCI  25
$$

COZ042>045-048>051-090-091-311200-
...NORTHEAST COLORADO...

CITY           SKY/WX    TMP DP  RH WIND       PRES   REMARKS
GREELEY ARPT   CLOUDY    34  21  60 CALM      29.93F
AKRON          CLOUDY    31  29  92 N7        29.91F WCI  24
BURLINGTON     CLOUDY    34  32  92 SW6       29.92F WCI  29
WRAY           CLOUDY    35  35 100 N3        29.94F
STERLING       CLOUDY    32  32 100 CALM      29.94F
HOLYOKE        NOT AVBL
FORT MORGAN    CLOUDY    34  28  77 N8        29.94S WCI  27
$$

COZ086-089-092>099-311200-
...SOUTHEAST COLORADO...

CITY           SKY/WX    TMP DP  RH WIND       PRES   REMARKS
PUEBLO         CLOUDY    36  35  96 CALM      29.92F
LA JUNTA       CLOUDY    38  36  92 CALM      29.92F FOG
LAMAR          CLOUDY    38  36  92 CALM      29.90F
SPRINGFIELD      N/A     33  32  96 SW13      29.94F WCI  24
$$


USA.gov is the U.S. government's official web portal to all federal, state and local government web resources and services.